Погода в Балтыме

Россия / Свердловская область     56°59′46″N   60°36′23″E
В апреле 2022 года жителям России запретили посещать сайт meteo.paraplan.net по решению Генеральной прокуратуры. Аудитория сайта уменьшилась в 10 раз. Владельцы сайта не видят смысла в поддержке погодного сервера в таких условиях. Сайт будет закрыт в октябре.
темп.,
°C
ветер,
м/с
пор.,
м/с
влажн.,
%
обл.,
%
осадки,
мм/ч
давл.,
гПа
погр.,
м
3 октября, пн
пн323:00+6ю31178100 0.0 1024296
02:00+5ю3108050 0.0 1023211
05:00+5ю31183100 0.0 1023230
08:00+7ююз31270100 0.0 1023390
11:00+10ююз41157100 0.0 1023509
14:00+11юз41056100 0.0 1024603
17:00+11юз4956100 0.1 1025547
20:00+8ююз31183100 2.9 1026376
4 октября, вт
вт423:00+9юз2117475 3.1 1027337
02:00+7юз3117684 0.0 1027253
05:00+6юз2976100 0.0 1029183
08:00+6зюз31274100 0.0 1030281
11:00+11зюз385793 0.0 1031344
14:00+15зюз35445 0.0 1030676
17:00+14юз23555 0.0 103164
20:00+10юз11675 0.0 103210
5 октября, ср
ср523:00+8юз117376 0.0 103211
02:00+8зюз1175100 0.0 103211
05:00+7зюз227490 0.0 103215
08:00+6зюз2267100 0.0 103238
11:00+10юз2654100 0.0 1031264
14:00+13юз3635100 0.0 1030834
17:00+11юз2547100 0.0 1029223
20:00+9ююз2450100 0.0 102998
6 октября, чт
чт623:00+9юз2449100 0.0 1028101
02:00+8ююз2450100 0.0 102792
05:00+8ю2352100 0.0 102659
08:00+7ююв115681 0.0 102537
11:00+10ююв354882 0.0 1022288
14:00+14ююз31039100 0.0 10211623
17:00+11з2465100 0.0 1020381
20:00+9юв1365100 0.1 1019117
7 октября, пт
пт723:00+8ю2266100 0.1 101753
02:00+8юз1468100 0.0 1015118
05:00+7юз247585 0.0 1014110
08:00+7ююз2675100 0.0 1012336
11:00+7юз3782100 0.1 1011501
14:00+7юз3787100 0.3 1010533
17:00+8юз4782100 0.4 1009930
20:00+5зюз4117895 0.3 1010584